Date String (YYYY-MM-DD hh:mm:ss) UTC,Instrument flags,Ambient pressure (hPa),Sample flow (lpm),Bypass flow (lpm),Sample temperature (°C),Ambient temperature (°C),ASC tube jacket temperature (°C),LED temperature (°C),Box temperature (°C),Sample RH (%),Span deviation,Mass concentration (μg/m³),Mass concentration (μg/m³),Mass concentration (μg/m³)
DateTimeUTC,F1_M11,P_M11,Q1_M11,Q2_M11,T1_M11,T2_M11,T3_M11,T4_M11,T5_M11,U1_M11,ZSPAN_M11,X0_M11,X2_M11,X1_M11
2022-12-31 14:00:00,,0813.2,5.00,0.00,22.3,21.0,00.0,31.2,24.1,12.3,0000.0,0017.90,0009.24,0007.92
2022-12-31 14:01:00,,0813.2,5.03,0.00,22.3,21.0,00.0,31.2,24.0,12.3,-000.2,0018.34,0009.24,0007.93
2022-12-31 14:02:00,,0813.2,5.00,0.00,22.3,20.9,00.0,31.2,24.0,12.4,0000.0,0018.73,0009.28,0007.95
2022-12-31 14:03:00,,0813.3,4.97,0.00,22.3,20.9,00.0,31.2,24.0,12.5,0000.0,0019.30,0009.31,0007.94
2022-12-31 14:04:00,,0813.3,5.03,0.00,22.3,21.3,00.0,31.1,24.1,12.7,0000.0,0019.04,0009.16,0007.84
2022-12-31 14:05:00,,0813.5,5.03,0.00,22.4,22.2,00.0,31.1,24.3,12.8,0000.0,0017.91,0008.91,0007.68
2022-12-31 14:06:00,,0813.4,5.00,0.00,22.5,23.0,00.0,31.1,24.6,12.7,0000.0,0017.71,0008.78,0007.58
2022-12-31 14:07:00,,0813.4,4.96,0.00,22.6,22.8,00.0,31.2,24.6,12.3,0000.0,0019.16,0008.71,0007.53
2022-12-31 14:08:00,,0813.4,5.00,0.00,22.6,22.4,00.0,31.3,24.5,12.2,0000.0,0020.04,0008.74,0007.54
2022-12-31 14:09:00,,0813.5,5.03,0.00,22.6,22.0,00.0,31.3,24.4,12.3,0000.0,0020.14,0008.80,0007.58
2022-12-31 14:10:00,,0813.5,5.01,0.00,22.6,21.7,00.0,31.3,24.4,12.4,0000.0,0021.07,0008.74,0007.59
2022-12-31 14:11:00,,0813.4,4.97,0.00,22.6,21.5,00.0,31.3,24.3,12.5,0000.0,0020.77,0008.58,0007.52
2022-12-31 14:12:00,,0813.3,4.97,0.00,22.6,21.4,00.0,31.3,24.3,12.6,0000.0,0020.27,0008.42,0007.40
2022-12-31 14:13:00,,0813.3,4.97,0.00,22.6,21.3,00.0,31.3,24.3,12.6,0000.0,0019.16,0008.18,0007.29
2022-12-31 14:14:00,,0813.3,5.05,0.00,22.6,21.3,00.0,31.3,24.3,12.6,0000.0,0018.07,0008.01,0007.20
2022-12-31 14:15:00,,0813.3,5.00,0.00,22.6,21.3,00.0,31.3,24.3,12.5,0000.0,0017.08,0007.95,0007.16
2022-12-31 14:16:00,,0813.3,4.99,0.00,22.5,21.3,00.0,31.3,24.3,12.6,0000.0,0017.01,0007.91,0007.15
2022-12-31 14:17:00,,0813.3,4.98,0.00,22.5,21.2,00.0,31.3,24.3,12.7,0000.0,0016.50,0007.83,0007.15
2022-12-31 14:18:00,,0813.5,4.96,0.00,22.5,21.2,00.0,31.3,24.3,12.6,0000.0,0014.85,0007.71,0007.09
2022-12-31 14:19:00,,0813.3,5.01,0.00,22.5,21.2,00.0,31.3,24.2,12.6,0000.0,0014.01,0007.61,0007.05
2022-12-31 14:20:00,,0813.4,4.98,0.00,22.5,21.2,00.0,31.3,24.2,12.6,0000.0,0013.52,0007.50,0007.01
2022-12-31 14:21:00,,0813.3,5.01,0.00,22.5,21.2,00.0,31.3,24.2,12.6,0000.0,0012.23,0007.47,0006.98
2022-12-31 14:22:00,,0813.4,4.97,0.00,22.5,21.2,00.0,31.3,24.2,12.5,0000.0,0011.88,0007.43,0006.97
2022-12-31 14:23:00,,0813.4,4.97,0.00,22.5,21.1,00.0,31.3,24.2,12.5,0000.0,0011.02,0007.42,0007.00
2022-12-31 14:24:00,,0813.4,4.97,0.00,22.4,21.1,00.0,31.3,24.1,12.6,0000.0,0010.99,0007.45,0007.04
2022-12-31 14:25:00,,0813.5,4.99,0.00,22.4,21.0,00.0,31.3,24.1,12.6,0000.0,0010.97,0007.46,0007.07
2022-12-31 14:26:00,,0813.3,5.01,0.00,22.4,20.9,00.0,31.3,24.1,12.6,0000.0,0010.90,0007.47,0007.10
2022-12-31 14:27:00,,0813.2,5.01,0.00,22.4,20.9,00.0,31.3,24.1,12.6,0000.0,0010.99,0007.53,0007.16
2022-12-31 14:28:00,,0813.2,4.98,0.00,22.4,20.9,00.0,31.3,24.1,12.6,0000.0,0011.07,0007.56,0007.17
2022-12-31 14:29:00,,0813.3,4.99,0.00,22.4,20.9,00.0,31.3,24.1,12.7,0000.0,0010.83,0007.53,0007.17
2022-12-31 14:30:00,,0813.4,5.05,0.00,22.3,20.9,00.0,31.3,24.1,12.7,0000.0,0010.36,0007.45,0007.13
2022-12-31 14:31:00,,0813.4,4.98,0.00,22.3,20.9,00.0,31.2,24.0,12.7,0000.0,0010.32,0007.45,0007.12
2022-12-31 14:32:00,,0813.5,4.99,0.00,22.4,21.5,00.0,31.2,24.2,12.8,0000.0,0010.28,0007.40,0007.09
2022-12-31 14:33:00,,0813.5,4.98,0.00,22.5,22.4,00.0,31.2,24.4,12.8,0000.0,0010.17,0007.32,0007.04
2022-12-31 14:34:00,,0813.3,5.03,0.00,22.6,23.0,00.0,31.2,24.7,12.8,0000.0,0010.33,0007.25,0006.96
2022-12-31 14:35:00,,0813.3,4.99,0.00,22.7,22.8,00.0,31.3,24.7,12.8,0000.0,0010.23,0007.18,0006.87
2022-12-31 14:36:00,,0813.3,4.98,0.00,22.7,22.4,00.0,31.3,24.6,12.8,0000.0,0010.04,0007.08,0006.80
2022-12-31 14:37:00,,0813.4,4.97,0.00,22.7,22.1,00.0,31.4,24.5,12.8,0000.0,0009.92,0007.02,0006.74
2022-12-31 14:38:00,,0813.5,5.01,0.00,22.7,21.8,00.0,31.4,24.4,12.7,0000.0,0009.78,0006.96,0006.69
2022-12-31 14:39:00,,0813.4,5.03,0.00,22.6,21.6,00.0,31.4,24.4,12.6,0000.0,0009.66,0006.92,0006.69
2022-12-31 14:40:00,,0813.5,5.05,0.00,22.6,21.5,00.0,31.4,24.3,12.5,0000.0,0009.66,0006.96,0006.74
2022-12-31 14:41:00,,0813.4,4.97,0.00,22.6,21.3,00.0,31.4,24.3,12.6,0000.0,0009.73,0007.03,0006.80
2022-12-31 14:42:00,,0813.4,5.02,0.00,22.6,21.3,00.0,31.4,24.3,12.6,0000.0,0009.79,0007.07,0006.83
2022-12-31 14:43:00,,0813.5,5.00,0.00,22.6,21.3,00.0,31.4,24.3,12.6,0000.0,0009.88,0007.09,0006.86
2022-12-31 14:44:00,,0813.6,5.03,0.00,22.6,21.3,00.0,31.4,24.3,12.6,0000.0,0011.87,0007.17,0006.92
2022-12-31 14:45:00,,0813.6,5.01,0.00,22.6,21.3,00.0,31.4,24.3,12.7,0000.0,0012.42,0007.24,0007.00
2022-12-31 14:46:00,,0813.6,4.99,0.00,22.6,21.2,00.0,31.4,24.3,12.7,0000.0,0012.99,0007.32,0007.09
2022-12-31 14:47:00,,0813.5,4.98,0.00,22.5,21.2,00.0,31.4,24.3,12.7,0000.0,0013.45,0007.40,0007.17
2022-12-31 14:48:00,,0813.6,4.99,0.00,22.5,21.2,00.0,31.4,24.2,12.7,0000.0,0013.51,0007.47,0007.25
2022-12-31 14:49:00,,0814.1,5.04,0.00,22.5,21.2,00.0,31.4,24.2,12.7,0000.0,0013.63,0007.56,0007.33
2022-12-31 14:50:00,,0814.3,5.01,0.00,22.5,21.2,00.0,31.4,24.2,12.6,0000.0,0013.79,0007.65,0007.38
2022-12-31 14:51:00,,0814.2,4.97,0.00,22.5,21.2,00.0,31.3,24.2,12.5,0000.0,0013.81,0007.68,0007.43
2022-12-31 14:52:00,,0814.1,5.03,0.00,22.5,21.1,00.0,31.3,24.2,12.6,0000.0,0013.85,0007.73,0007.47
2022-12-31 14:53:00,,0813.6,5.03,0.00,22.5,21.1,00.0,31.3,24.2,12.7,0000.0,0013.91,0007.81,0007.57
2022-12-31 14:54:00,,0813.5,4.98,0.00,22.5,21.1,00.0,31.3,24.2,12.7,0000.0,0013.96,0007.92,0007.66
2022-12-31 14:55:00,,0813.6,4.97,0.00,22.5,21.1,00.0,31.3,24.2,12.8,0000.0,0012.33,0008.00,0007.72
2022-12-31 14:56:00,,0813.6,4.97,0.00,22.5,21.1,00.0,31.3,24.2,13.0,0000.0,0012.12,0008.02,0007.74
2022-12-31 14:57:00,,0814.1,5.02,0.00,22.4,21.1,00.0,31.3,24.2,12.9,0000.0,0011.71,0008.09,0007.79
2022-12-31 14:58:00,,0814.1,5.02,0.00,22.4,21.0,00.0,31.3,24.2,12.8,0000.0,0011.39,0008.18,0007.87
2022-12-31 14:59:00,,0813.6,4.97,0.00,22.4,21.0,00.0,31.3,24.1,12.8,0000.0,0011.57,0008.30,0007.98
